TimePST,TemperatureF,Dew PointF,Humidity,Sea Level PressureIn,VisibilityMPH,Wind Direction,Wind SpeedMPH,Gust SpeedMPH,PrecipitationIn,Events,Conditions,WindDirDegrees,DateUTC
12:53 AM,16.0,10.9,81,30.52,-9999.0,South,3.5,-,N/A,,Unknown,180,2013-02-15 08:53:00
4:53 AM,16.0,12.0,84,30.53,-9999.0,SSW,8.1,-,N/A,,Unknown,200,2013-02-15 12:53:00
5:53 AM,12.9,10.0,88,30.56,-9999.0,South,5.8,-,N/A,,Unknown,180,2013-02-15 13:53:00
6:53 AM,15.1,12.0,88,30.58,-9999.0,South,6.9,-,N/A,,Unknown,190,2013-02-15 14:53:00
7:53 AM,21.0,17.1,85,30.59,-9999.0,SSW,4.6,-,N/A,,Unknown,210,2013-02-15 15:53:00
8:53 AM,27.0,21.0,78,30.58,-9999.0,South,5.8,-,N/A,,Unknown,180,2013-02-15 16:53:00
9:53 AM,32.0,24.1,73,30.56,-9999.0,SSW,4.6,-,N/A,,Unknown,210,2013-02-15 17:53:00
10:53 AM,37.0,21.9,54,30.55,-9999.0,Calm,Calm,-,N/A,,Unknown,0,2013-02-15 18:53:00
11:53 AM,39.9,21.0,47,30.52,-9999.0,NE,4.6,-,N/A,,Unknown,40,2013-02-15 19:53:00
12:53 PM,41.0,21.9,47,30.49,-9999.0,NNE,3.5,-,N/A,,Unknown,30,2013-02-15 20:53:00
1:53 PM,42.1,25.0,51,30.48,-9999.0,NE,4.6,-,N/A,,Unknown,40,2013-02-15 21:53:00
2:53 PM,45.0,23.0,42,30.46,-9999.0,North,3.5,-,N/A,,Unknown,360,2013-02-15 22:53:00
3:53 PM,43.0,25.0,49,30.46,-9999.0,Calm,Calm,-,N/A,,Unknown,0,2013-02-15 23:53:00
4:53 PM,41.0,23.0,49,30.45,-9999.0,Calm,Calm,-,N/A,,Unknown,0,2013-02-16 00:53:00
5:53 PM,28.9,23.0,78,30.53,-9999.0,South,4.6,-,N/A,,Unknown,180,2013-02-16 01:53:00
6:53 PM,27.0,21.0,78,30.53,-9999.0,Calm,Calm,-,N/A,,Unknown,0,2013-02-16 02:53:00
7:53 PM,23.0,19.0,85,30.52,-9999.0,SSW,5.8,-,N/A,,Unknown,210,2013-02-16 03:53:00
8:53 PM,21.9,18.0,85,30.51,-9999.0,South,6.9,-,N/A,,Unknown,180,2013-02-16 04:53:00
9:53 PM,23.0,17.1,78,30.47,-9999.0,SSW,6.9,-,N/A,,Unknown,200,2013-02-16 05:53:00
10:53 PM,23.0,18.0,81,30.45,-9999.0,Calm,Calm,-,N/A,,Unknown,0,2013-02-16 06:53:00
11:53 PM,21.9,16.0,78,30.44,-9999.0,SSW,8.1,-,N/A,,Unknown,200,2013-02-16 07:53:00